[ hide orbit diagram ]
For accurate long-term ephemerides, please instead use our Horizons system.This orbit viewer was implemented using two-body methods, and hence should not be used for determining accurate long-term trajectories (over several years or decades) or planetary encounter circumstances.
[ revert to old Java-based viewer ]
Orbital Elements at Epoch 2458600.5 (2019-Apr-27.0) TDB
Reference: JPL 12 (heliocentric ecliptic J2000)
Element | Value | Uncertainty (1-sigma) | Units |
e | .2364605711400247 | 4.6644e-08 | |
a | 2.235868758597975 | 1.6723e-08 | au |
q | 1.70717395494576 | 1.0135e-07 | au |
i | 5.332535758550825 | 7.976e-06 | deg |
node | 264.2656131337235 | 6.6187e-05 | deg |
peri | 73.61088406668792 | 6.941e-05 | deg |
M | 96.25531874973819 | 1.9721e-05 | deg |
tp | 2458273.994783623704 (2018-Jun-04.49478362) | 6.6874e-05 | TDB |
period | 1221.146835543427 3.34 | 1.37e-05 3.751e-08 | d yr |
n | .2948048420727349 | 3.3075e-09 | deg/d |
Q | 2.76456356225019 | 2.0677e-08 | au |
|
| | Orbit Determination Parameters
Additional Information
|
[ show covariance matrix ]
Physical Parameter Table
Parameter |
Symbol |
Value |
Units |
Sigma |
Reference |
Notes |
absolute magnitude |
H |
17.7 |
|
n/a |
MPO460413 |
|
|
359018 (2008 UC299) Discovered 2008-Oct-29 by Spacewatch at Kitt Peak |
Reference: 20130327/Numbers.arc | Last Updated: 2013-03-29 |
|
[ show close-approach data ]
|